FW9250 Weather Reports


Display with metric or nautical units.
time (UTC)temp
F
wind
direction
speed
MPH
gust
MPH
rain 1hr
in
rain 24hr
in
rain mn
in
humidity
%
barometer
mb
20210919060036 59 24 1.0 3.0 0.00 0.08 0.00 82 1015.8
20210919054536 60 0 1.0 6.0 0.00 0.08 0.00 82 1016.0
20210919053020 60 315 0.0 3.0 0.00 0.08 0.00 83 1015.9
20210919051529 60 355 0.0 3.0 0.00 0.08 0.00 83 1016.2
20210919050009 60 11 1.0 4.0 0.00 0.08 0.00 83 1016.0
20210919044510 60 0 0.0 2.0 0.00 0.08 0.00 84 1016.1
20210919043037 61 279 1.0 6.0 0.00 0.08 0.00 83 1015.9
20210919041511 61 74 1.0 4.0 0.00 0.08 0.00 84 1016.1
20210919040029 61 0 0.0 2.0 0.00 0.08 0.00 83 1016.1
20210919034511 61 0 0.0 4.0 0.00 0.08 0.08 84 1015.8
20210919033043 61 58 0.0 3.0 0.00 0.08 0.08 85 1015.5
20210919031518 61 0 0.0 5.0 0.00 0.08 0.08 85 1015.5
20210919030044 61 0 1.0 4.0 0.00 0.08 0.08 87 1015.5
20210919024525 61 77 1.0 3.0 0.00 0.08 0.08 90 1015.3
20210919023015 62 0 0.0 2.0 0.00 0.08 0.08 92 1015.6
20210919021512 62 0 0.0 2.0 0.00 0.08 0.08 89 1015.7
20210919020024 63 0 1.0 6.0 0.00 0.08 0.08 87 1015.9
20210919014513 65 350 0.0 4.0 0.00 0.08 0.08 92 1015.9
20210919013010 66 341 1.0 4.0 0.00 0.08 0.08 97 1015.9
20210919011514 66 0 0.0 1.0 0.00 0.08 0.08 98 1015.8
20210919010014 66 34 0.0 1.0 0.00 0.08 0.08 98 1015.6
20210919004612 66 114 0.0 2.0 0.00 0.08 0.08 98 1015.6
20210919003029 66 0 0.0 0.0 0.00 0.08 0.08 97 1015.5
20210919001510 67 0 0.0 2.0 0.00 0.08 0.08 97 1015.4
20210919000045 67 0 0.0 2.0 0.00 0.08 0.08 97 1015.3
20210918234518 67 0 0.0 1.0 0.00 0.08 0.08 97 1015.0
20210918233012 67 262 0.0 2.0 0.01 0.08 0.08 97 1015.0
20210918231519 67 0 0.0 0.0 0.06 0.08 0.08 96 1014.8
20210918230012 67 299 0.0 2.0 0.08 0.08 0.08 96 1015.0
20210918224511 68 0 0.0 2.0 0.08 0.08 0.08 95 1014.7
20210918223024 69 0 0.0 3.0 0.07 0.07 0.07 93 1014.9
20210918221533 70 266 2.0 7.0 0.01 0.01 0.01 89 1014.7
20210918220035 71 346 1.0 3.0 0.00 0.00 0.00 88 1014.4
20210918214522 72 0 0.0 1.0 0.00 0.00 0.00 87 1013.8
20210918213040 73 145 0.0 4.0 0.00 0.00 0.00 83 1013.8
20210918211519 75 0 0.0 3.0 0.00 0.00 0.00 81 1014.1
20210918210010 76 150 1.0 3.0 0.00 0.00 0.00 78 1014.1
20210918204519 76 124 0.0 4.0 0.00 0.00 0.00 80 1014.2
20210918203019 75 135 2.0 7.0 0.00 0.00 0.00 81 1014.1
20210918201523 75 94 2.0 6.0 0.00 0.00 0.00 82 1014.2
20210918200026 75 98 2.0 6.0 0.00 0.00 0.00 81 1014.3
20210918194528 75 76 1.0 7.0 0.00 0.00 0.00 82 1014.4
20210918193017 75 102 3.0 9.0 0.00 0.00 0.00 81 1014.3
20210918191538 75 107 2.0 6.0 0.00 0.00 0.00 81 1014.5
20210918190014 75 90 3.0 8.0 0.00 0.00 0.00 82 1014.1
20210918184514 74 137 3.0 6.0 0.00 0.00 0.00 83 1014.2
20210918183043 74 173 3.0 7.0 0.00 0.00 0.00 83 1014.5
20210918181525 74 145 3.0 9.0 0.00 0.00 0.00 83 1014.7
20210918180017 75 115 3.0 7.0 0.00 0.00 0.00 83 1014.9
20210918174523 73 242 1.0 7.0 0.00 0.00 0.00 86 1015.2
20210918173009 72 98 2.0 5.0 0.00 0.00 0.00 89 1015.5
20210918171513 70 132 2.0 5.0 0.00 0.00 0.00 90 1015.8
20210918170022 71 107 2.0 7.0 0.00 0.00 0.00 89 1016.1
20210918164517 71 117 3.0 6.0 0.00 0.00 0.00 90 1016.4
20210918163037 70 142 1.0 4.0 0.00 0.00 0.00 93 1016.5
20210918161516 69 127 1.0 6.0 0.00 0.00 0.00 91 1016.8
20210918160010 69 105 1.0 4.0 0.00 0.00 0.00 94 1017.0
20210918154509 67 88 1.0 4.0 0.00 0.00 0.00 95 1017.3
20210918153025 67 0 1.0 4.0 0.00 0.00 0.00 95 1017.5
20210918151509 66 116 1.0 3.0 0.00 0.00 0.00 97 1017.4
20210918150023 66 97 1.0 4.0 0.00 0.00 0.00 97 1017.5
20210918144511 65 111 2.0 5.0 0.00 0.00 0.00 98 1017.4
20210918143036 66 65 3.0 6.0 0.00 0.00 0.00 97 1017.4
20210918141511 65 111 2.0 3.0 0.00 0.00 0.00 99 1017.9
20210918140019 65 0 0.0 0.0 0.00 0.00 0.00 99 1018.3
20210918134509 65 0 0.0 2.0 0.00 0.00 0.00 99 1018.2
20210918133019 64 0 0.0 0.0 0.00 0.00 0.00 99 1018.3
20210918131511 64 0 0.0 0.0 0.00 0.00 0.00 99 1018.5
20210918130018 63 0 0.0 0.0 0.00 0.00 0.00 99 1018.6
20210918124536 63 0 0.0 0.0 0.00 0.00 0.00 99 1018.5
20210918123010 63 0 0.0 0.0 0.00 0.00 0.00 99 1018.5
20210918121517 62 0 0.0 0.0 0.00 0.00 0.00 99 1018.7
20210918120019 62 0 0.0 1.0 0.00 0.00 0.00 99 1018.5
20210918114512 62 0 0.0 0.0 0.00 0.00 0.00 99 1019.1
20210918113047 62 0 0.0 0.0 0.00 0.00 0.00 99 1018.9
20210918111515 61 0 0.0 0.0 0.00 0.00 0.00 99 1018.7
20210918110012 61 99 0.0 2.0 0.00 0.00 0.00 99 1018.9
20210918104513 61 0 0.0 0.0 0.00 0.00 0.00 99 1019.2
20210918103014 61 0 0.0 0.0 0.00 0.00 0.00 99 1019.3
20210918101535 61 0 0.0 0.0 0.00 0.00 0.00 99 1019.4
20210918100040 61 0 0.0 0.0 0.00 0.00 0.00 99 1019.4
20210918094510 61 0 0.0 0.0 0.00 0.00 0.00 99 1019.5
20210918093019 61 0 0.0 0.0 0.00 0.00 0.00 99 1019.5
20210918091510 60 0 0.0 0.0 0.00 0.00 0.00 99 1019.5
20210918090025 60 0 0.0 0.0 0.00 0.00 0.00 99 1019.4
20210918084522 60 0 0.0 0.0 0.00 0.00 0.00 99 1019.5
20210918083012 60 0 0.0 0.0 0.00 0.00 0.00 99 1019.5
20210918081527 60 0 0.0 0.0 0.00 0.00 0.00 99 1019.5
20210918080020 60 0 0.0 0.0 0.00 0.00 0.00 99 1019.6
20210918074522 60 0 0.0 0.0 0.00 0.00 0.00 99 1019.5
20210918073009 60 0 0.0 0.0 0.00 0.00 0.00 99 1019.6
20210918071538 60 0 0.0 0.0 0.00 0.00 0.00 98 1019.9
20210918070023 60 0 0.0 0.0 0.00 0.00 0.00 98 1019.8
20210918064516 60 0 0.0 0.0 0.00 0.00 0.00 98 1020.2
20210918063011 60 0 0.0 2.0 0.00 0.00 0.00 98 1020.4
20210918061510 60 0 0.0 0.0 0.00 0.00 0.00 98 1020.4